Вернуться в каталог

STARLINK-32331

АктивенСвязьVLEO
NORAD 61623·PAYLOAD·🇺🇸 United States

Запущен Oct 23, 2024 с Cape Canaveral Space Force Station

Loading…

Ближайшие Пролёты (ближайшие 24 часа)

TLE

СвежийSource: CelesTrak SupGP

Эпоха: Sep 15, 2026, 02:36 UTC

1 61623C 24191C   26258.10881944 -.00033821  00000+0 -12252-2 0  2583
2 61623  43.0001 168.2742 0001489 276.6509 137.2628 15.27588506    12

Отслеживайте STARLINK-32331 в реальном времени с AllMySat

Download on the App Store